Overview Statistics Trail Chart Weather Telemetry Raw packets
 

This is the latest recevied weather packets stored in our database for station/object KF6RAL-6. If no packets are shown the sender has not sent any weather packets the latest 10 day(s).

<< 25 26 27 28 29 30 31 >>
Time Temp. Humidity Pressure Rain* Wind** Luminosity Snow
1788433630 15.56° C 51% 1012.4 hPa 0 mm - - -
1788433209 16.11° C 49% 1012.4 hPa 0 mm - - -
1788432788 16.67° C 46% 1012.1 hPa 0 mm - - -
1788432367 16.67° C 45% 1012.1 hPa 0 mm - - -
1788431946 16.67° C 46% 1012 hPa 0 mm - - -
1788431525 16.67° C 47% 1012.1 hPa 0 mm - - -
1788431104 16.67° C 44% 1012 hPa 0 mm - - -
1788430683 16.67° C 45% 1012.1 hPa 0 mm - - -
1788430263 16.67° C 47% 1011.9 hPa 0 mm - - -
1788429841 16.67° C 49% 1011.9 hPa 0 mm - - -
1788429422 17.22° C 48% 1011.9 hPa 0 mm - - -
1788429004 17.78° C 39% 1011.6 hPa 0 mm - - -
1788428578 17.22° C 40% 1011.8 hPa 0 mm - - -
1788428157 17.78° C 41% 1011.5 hPa 0 mm - - -
1788427736 17.78° C 44% 1011.3 hPa 0 mm - - -
1788427315 17.78° C 42% 1011.5 hPa 0 mm - - -
1788426894 17.22° C 44% 1011.5 hPa 0 mm - - -
1788426473 17.78° C 41% 1011.3 hPa 0 mm - - -
1788426052 17.78° C 40% 1011.3 hPa 0 mm - - -
1788425631 17.22° C 44% 1011.5 hPa 0 mm - - -
1788425209 17.22° C 44% 1011.6 hPa 0 mm - - -
1788424789 17.22° C 43% 1011.5 hPa 0 mm - - -
1788424367 17.78° C 42% 1011.4 hPa 0 mm - - -
1788423946 18.33° C 37% 1011.4 hPa 0 mm - - -
1788423526 19.44° C 35% 1012 hPa 0 mm - - -

* Rain latest hour (hover to see other rain measurements)
** Current wind speed in m/s (hover to see current wind gust speed)